Regional Weather Roundup
Issued by NWS

Home | Current Version | Previous Version | Text Only | Print | Product List | Glossary On
Versions: 1 2 3 4 5 6 7 8 9 10 11 12 13 14 15 16 17 18 19 20 21 22 23 24 25 26 27 28 29 30 31 32 33 34 35 36 37 38 39 40 41 42 43 44 45 46 47 48 49 50
000
ASUS44 KOUN 300710
RWROK

WEATHER ROUNDUP FOR OKLAHOMA
NATIONAL WEATHER SERVICE NORMAN OK
200 AM CDT MON MAR 30 2015

NOTE: "FAIR" INDICATES FEW OR NO CLOUDS BELOW 12,000 FEET WITH NO
      SIGNIFICANT WEATHER AND/OR OBSTRUCTIONS TO VISIBILITY.

OKZ001>007-009>012-014-015-017-300800-
NORTHWEST OKLAHOMA AND THE PANHANDLE

CITY           SKY/WX    TMP DP  RH WIND       PRES   REMARKS
GAGE           CLEAR     40  33  76 S6        30.21S
GUYMON         PTCLDY    47  29  49 S5        30.22S
ENID/WOODRING  CLEAR     43  36  75 N8        30.18R
$$

OKZ016-021>023-033>039-044-045-300800-
SOUTHWEST OKLAHOMA

CITY           SKY/WX    TMP DP  RH WIND       PRES   REMARKS
LAWTON/REGL    CLEAR     50  41  71 N6        30.17R
LAWTON/FT SILL CLEAR     51  42  73 CALM      30.15S
FREDERICK      CLEAR     51  41  68 N12       30.14S
CLINTON        CLEAR     44  34  67 N5        30.22R
HOBART         CLEAR     49  35  58 E5        30.19S
ALTUS AFB      CLEAR     47  39  75 NE9       30.17S
$$

OKZ018>020-024>031-300800-
CENTRAL OKLAHOMA

CITY           SKY/WX    TMP DP  RH WIND       PRES   REMARKS
OKLAHOMA CITY  CLEAR     53  41  63 N7        30.17S
OKC/WILEY POST CLEAR     50  37  61 CALM      30.18S
OKC/TINKER AFB CLEAR     56  41  57 NW6       30.16S
STILLWATER     CLEAR     50  38  63 NE12      30.18R
GUTHRIE        CLEAR     44  37  76 CALM      30.17F
$$

OKZ008-013-054>072-300800-
NORTHEAST OKLAHOMA

CITY           SKY/WX    TMP DP  RH WIND       PRES   REMARKS
TULSA          CLEAR     48  43  82 NW3       30.18R
TULSA/JONES    CLEAR     44  40  85 CALM      30.18R
PONCA CITY     CLEAR     46  35  65 E3        30.20R
BARTLESVILLE   CLEAR     49  40  71 CALM      30.22R
MUSKOGEE       CLEAR     49  43  80 N5        30.18R
$$

OKZ032-040>043-046>053-073>077-300800-
SOUTH CENTRAL/SOUTHEAST OKLAHOMA

CITY           SKY/WX    TMP DP  RH WIND       PRES   REMARKS
ARDMORE/DWNTWN MOCLDY    59  41  51 NE3       30.15S
MCALESTER      PTCLDY    49  43  80 NE3       30.16S
$$



USA.gov is the U.S. government's official web portal to all federal, state and local government web resources and services.